Location: Unspecified
(0.0000°N, 0.0000°E)
Time: 05:13:23
(UTC+00:00)

Tiros 1 despin weight - Pass Details

Date: 09 October 2020
Orbit: 594 x 641 km, 48.2° (Epoch: 28 October)

Event Time Altitude Azimuth Distance (km) Brightness Sun altitude
Rises 03:14:26 0° 186° (S) 2,856 - -37.9°
Reaches altitude 10° 03:18:01 10° 157° (SSE) 1,939 - -37.0°
Maximum altitude 03:19:56 13° 131° (SE) 1,770 - -36.6°
Exits shadow 03:20:04 13° 129° (SE) 1,771 ? -36.5°
Drops below altitude 10° 03:21:50 10° 105° (ESE) 1,928 ? -36.1°
Sets 03:25:22 0° 76° (ENE) 2,820 ? -35.2°
